Date,TemperatureHighF,TemperatureAvgF,TemperatureLowF,DewpointHighF,DewpointAvgF,DewpointLowF,HumidityHigh,HumidityAvg,HumidityLow,PressureMaxIn,PressureMinIn,WindSpeedMaxMPH,WindSpeedAvgMPH,GustSpeedMaxMPH,PrecipitationSumIn
2013-1-1,36,32,19,24,16,4,64,52,39,29.97,29.75,13,6,24,0.02
2013-1-2,30,21,12,15,6,-3,64,53,45,30.14,29.93,14,5,23,0.00
2013-1-3,19,9,6,-2,-6,-8,58,49,32,30.18,30.13,8,3,15,0.00
2013-1-12,44,43,41,43,42,40,99,96,94,30.23,30.16,2,0,5,0.01
2013-1-13,53,47,42,50,46,42,99,96,86,30.19,30.02,7,2,14,0.02
2013-1-14,62,53,42,52,42,25,95,70,37,30.28,29.87,11,6,20,0.00
2013-1-15,42,39,35,25,24,21,62,54,48,30.35,30.25,5,2,13,0.00
2013-1-16,35,33,30,32,29,20,97,87,56,30.29,29.87,4,1,7,0.13
2013-1-17,42,35,30,32,26,11,96,72,47,30.13,29.87,9,4,18,0.20
2013-1-18,30,23,18,11,-2,-10,46,33,23,30.50,30.10,11,5,20,0.20
2013-1-19,49,38,23,31,20,2,67,49,32,30.43,29.93,13,6,27,0.00
2013-1-20,54,42,29,31,23,5,67,48,28,29.95,29.58,16,8,26,0.00
2013-1-21,29,25,22,20,8,1,87,51,31,30.14,29.84,11,3,21,0.00
2013-1-22,24,20,13,19,6,-6,89,56,30,30.12,29.80,11,5,21,0.00
2013-1-23,16,11,7,-2,-11,-16,55,37,24,30.19,30.10,12,6,19,0.00
2013-1-24,20,11,3,-9,-13,-17,50,33,19,30.26,30.10,15,7,29,0.00
2013-1-25,24,16,8,12,-10,-16,81,33,19,30.35,30.11,10,4,21,0.00
2013-1-26,25,18,12,12,0,-11,82,50,22,30.27,30.05,12,5,20,0.00
2013-1-27,31,21,13,1,-3,-9,59,37,21,30.51,30.27,13,5,20,0.00
2013-1-28,31,25,20,28,10,-2,94,58,27,30.50,30.06,6,1,12,0.00
2013-1-29,34,31,26,33,28,23,95,89,81,30.24,30.06,2,0,7,0.13
2013-1-30,62,50,34,58,48,33,99,92,79,30.19,29.50,13,5,24,0.05
2013-1-31,61,48,32,58,36,11,93,64,31,29.62,28.99,18,10,46,0.39
2013-2-1,33,29,23,14,5,0,49,36,27,30.12,29.62,12,8,22,0.39
2013-2-2,29,24,18,10,4,-2,50,41,31,30.30,30.09,8,4,12,0.00
2013-2-3,27,25,22,22,18,9,85,78,48,30.10,29.77,6,2,12,0.00
2013-2-4,29,25,21,21,9,1,86,53,31,29.98,29.75,13,6,25,0.00
2013-2-5,29,25,21,23,11,6,89,57,42,30.07,29.98,6,2,11,0.00
2013-2-6,38,30,26,24,18,1,91,63,32,30.33,29.96,11,3,16,0.04
2013-2-7,30,25,18,17,0,-5,62,34,24,30.57,30.33,10,3,23,0.04
2013-2-8,33,30,18,31,25,16,100,84,63,30.53,29.65,16,6,24,0.04
2013-2-9,20,18,15,18,13,1,93,81,54,30.23,29.60,14,10,24,0.04
2013-2-10,40,24,11,19,6,-2,76,48,20,30.44,30.23,8,2,18,0.04
2013-2-11,45,32,20,44,28,11,99,84,56,30.40,29.64,3,0,7,0.23
2013-2-12,45,39,34,38,28,24,99,64,47,29.92,29.64,14,6,20,0.23
2013-2-13,42,36,28,27,23,21,78,62,44,29.90,29.72,7,2,12,0.00
2013-2-14,45,37,31,28,21,16,78,55,33,30.03,29.72,8,2,13,0.00
2013-2-15,53,40,31,34,30,22,94,70,44,30.04,29.93,9,3,16,0.00
2013-2-16,39,35,31,32,26,14,95,72,47,29.99,29.76,6,2,11,0.02
2013-2-17,30,22,17,17,9,-3,87,59,34,29.76,29.42,17,10,38,0.02
2013-2-18,32,23,15,1,-3,-8,48,33,18,30.19,29.71,20,9,31,0.00
2013-2-19,48,37,24,43,22,0,98,58,33,30.21,29.61,6,2,14,0.33
2013-2-20,43,33,27,42,18,7,97,57,34,29.82,29.56,13,8,29,0.33
2013-2-21,33,28,25,14,10,7,60,49,37,30.21,29.81,16,8,30,0.00
2013-2-22,39,32,25,24,19,14,71,59,39,30.43,30.21,10,3,19,0.00
2013-2-23,39,35,30,33,28,22,96,76,64,30.38,29.96,4,1,9,0.10
2013-2-24,38,34,31,37,33,30,98,97,93,29.96,29.73,7,2,16,0.35
2013-2-25,41,35,30,32,29,25,96,80,58,30.29,29.93,5,1,10,0.13
2013-2-26,45,37,29,35,29,23,97,75,47,30.38,30.20,5,2,10,0.13
2013-2-27,42,40,38,40,38,31,98,93,73,30.20,29.59,10,6,19,1.29
2013-2-28,47,39,34,37,35,32,97,85,62,29.68,29.56,6,1,8,1.29
2013-3-1,41,38,35,35,29,25,89,70,57,29.71,29.56,9,3,13,0.00
2013-3-2,43,38,32,28,26,23,72,61,52,29.71,29.66,9,3,15,0.00
2013-3-3,42,36,32,32,27,23,90,71,61,29.68,29.60,7,4,13,0.00
2013-3-4,40,34,30,28,22,19,82,62,46,29.77,29.61,14,9,25,0.00
2013-3-5,45,37,32,33,26,20,84,64,47,30.11,29.77,10,4,16,0.00
2013-3-6,40,37,35,36,32,28,92,82,62,30.15,30.08,14,7,24,0.15
2013-3-7,37,32,30,32,29,-100,96,90,69,30.11,30.03,12,7,24,0.05
2013-3-8,43,33,29,33,27,20,100,82,43,30.18,29.98,14,4,25,0.22
2013-3-9,44,36,30,30,25,18,92,63,47,30.39,30.18,10,2,13,0.12
2013-3-10,42,35,28,31,29,26,93,80,62,30.46,30.36,4,1,10,0.01
2013-3-11,53,43,36,40,35,32,91,76,53,30.37,30.19,7,4,12,0.01
2013-3-12,57,50,42,54,47,40,96,90,77,30.21,29.76,10,3,19,0.27
2013-3-13,53,45,38,52,29,17,97,57,27,29.82,29.73,10,5,19,0.27
2013-3-14,38,32,23,23,13,3,60,45,32,29.87,29.74,14,7,23,0.00
2013-3-15,41,30,20,26,9,0,66,43,21,29.91,29.67,12,7,23,0.00
2013-3-16,40,34,29,25,12,4,65,41,24,29.92,29.70,9,4,15,0.00
2013-3-17,38,31,26,18,7,0,62,37,21,30.36,29.92,13,4,23,0.00
2013-3-18,38,29,19,27,7,-5,92,42,21,30.50,30.30,8,2,14,0.00
2013-3-19,36,32,28,35,31,25,98,96,88,30.30,29.64,11,6,22,0.63
2013-3-20,38,31,26,25,20,14,88,64,38,29.86,29.73,12,6,24,0.11
2013-3-21,38,31,26,30,21,13,91,67,44,29.86,29.65,5,1,10,0.01
2013-3-22,40,34,28,27,18,12,88,53,34,29.78,29.64,8,5,15,0.01
2013-3-23,44,36,29,22,17,12,68,48,29,29.82,29.67,14,7,28,0.00
2013-3-24,47,39,32,29,22,18,70,51,34,29.86,29.77,11,4,18,0.00
2013-3-25,46,38,33,33,29,24,78,69,53,29.81,29.56,10,4,22,0.00
2013-3-26,51,42,35,30,22,15,82,48,25,29.81,29.57,9,5,16,0.00
2013-3-27,53,44,32,31,22,18,67,43,27,29.90,29.77,10,5,19,0.00
2013-3-28,48,42,37,35,32,27,89,68,45,30.05,29.90,7,3,13,0.01
2013-3-29,57,47,36,36,30,25,78,55,31,30.08,30.00,10,3,19,0.01
2013-3-30,57,48,38,32,22,9,71,41,16,30.13,30.04,10,4,16,0.00
2013-3-31,60,46,30,40,26,17,81,49,20,30.16,29.79,11,3,25,0.01
2013-4-1,62,47,36,46,35,8,97,67,28,29.82,29.53,14,6,26,0.09
2013-4-2,40,35,30,15,10,5,47,36,25,29.99,29.82,15,8,27,0.09
2013-4-3,46,37,30,17,10,4,55,34,19,30.19,29.96,14,9,24,0.00
2013-4-4,56,42,30,25,13,5,53,34,13,30.34,30.09,10,5,20,0.00
2013-4-5,62,46,38,29,24,17,65,45,19,30.10,29.65,12,6,24,0.00
2013-4-6,47,38,32,24,8,-3,52,31,14,30.38,29.91,14,6,29,0.00
2013-4-7,53,42,29,40,26,13,76,53,27,30.37,30.05,13,5,30,0.00
2013-4-8,67,53,44,43,39,30,92,62,28,30.13,29.98,8,3,14,0.00
2013-4-9,71,56,47,51,43,38,95,66,34,30.13,29.89,12,4,24,0.10
2013-4-10,62,51,46,49,44,41,95,77,55,30.05,29.90,6,2,10,0.12
2013-4-11,52,47,44,47,40,26,97,78,48,30.18,29.86,6,2,10,0.01
2013-4-12,44,40,37,38,34,28,96,83,53,30.21,29.83,9,5,20,0.37
2013-4-13,52,43,36,39,36,32,94,78,48,29.96,29.80,8,3,20,0.40
2013-4-14,52,47,41,40,30,22,86,56,33,30.25,29.95,12,4,19,0.00
2013-4-15,55,46,36,38,31,27,75,58,38,30.44,30.25,5,2,10,0.00
2013-4-16,63,52,39,50,40,34,92,66,44,30.45,30.10,12,6,28,0.00
2013-4-17,68,59,51,52,35,24,82,44,21,30.37,30.10,10,5,23,0.00
2013-4-18,64,53,41,43,33,23,74,49,27,30.47,30.19,10,4,19,0.00
2013-4-19,74,64,53,63,57,43,97,81,56,30.19,29.69,14,7,28,0.00
2013-4-20,67,54,45,63,39,20,94,61,31,30.25,29.63,13,7,28,0.24
2013-4-21,53,43,35,30,20,14,61,41,23,30.72,30.25,13,4,23,0.24
2013-4-22,50,42,34,34,29,17,83,61,28,30.80,30.64,9,4,21,0.00
2013-4-23,42,41,40,42,38,30,99,87,65,30.64,30.16,9,5,18,0.04
2013-4-24,76,55,42,50,44,36,96,70,24,30.16,29.82,11,5,21,0.04
2013-4-25,65,56,47,53,35,20,92,51,18,30.30,29.87,13,5,21,0.01
2013-4-26,57,50,44,41,34,28,85,55,37,30.47,30.30,6,2,12,0.01
2013-4-27,63,52,38,43,35,28,96,58,29,30.46,30.33,6,2,11,0.00
2013-4-28,67,55,40,39,34,24,89,49,26,30.38,30.26,8,2,12,0.00
2013-4-29,70,58,47,45,35,16,86,49,18,30.32,30.22,8,3,15,0.00
2013-4-30,68,56,44,39,28,7,75,40,11,30.41,30.29,5,1,9,0.00
2013-5-1,67,55,39,40,33,24,86,48,21,30.51,30.41,4,1,9,0.00
2013-5-2,76,56,44,45,40,32,89,60,22,30.53,30.40,8,2,14,0.00
2013-5-3,59,50,44,43,40,38,86,69,51,30.56,30.42,8,3,14,0.00
2013-5-4,57,49,40,44,39,36,94,71,51,30.42,30.36,5,2,11,0.00
2013-5-5,58,49,38,42,38,36,94,70,45,30.37,30.30,5,1,13,0.00
2013-5-6,65,51,39,48,44,38,98,80,48,30.33,30.20,5,1,8,0.00
2013-5-7,75,62,45,57,50,44,96,68,41,30.22,30.13,5,1,11,0.00
2013-5-8,72,62,54,62,57,53,96,85,64,30.24,30.09,5,1,9,0.14
2013-5-9,69,59,57,60,24,-100,98,74,67,30.09,29.93,2,0,6,0.67
2013-5-10,79,66,55,59,11,-100,97,46,40,29.99,29.93,5,1,11,0.68
2013-5-11,72,65,59,62,58,53,93,81,63,29.95,29.73,9,4,20,0.06
2013-5-12,72,62,52,60,49,-100,96,68,31,29.85,29.59,12,3,21,0.06
2013-5-13,60,51,44,32,27,23,61,41,27,30.07,29.85,8,4,22,0.06
2013-5-14,59,51,41,33,28,23,66,44,27,30.09,30.01,9,4,18,0.00
2013-5-15,66,54,39,52,38,26,89,59,26,30.10,29.71,11,3,20,0.00
2013-5-16,82,68,48,52,40,29,96,46,18,29.83,29.65,12,3,19,0.01
2013-5-17,69,60,52,45,40,33,73,49,27,30.25,29.83,9,3,19,0.01
2013-5-18,72,61,46,48,43,32,91,55,24,30.34,30.25,5,1,10,0.00
2013-5-19,71,57,49,55,50,46,96,77,44,30.39,30.27,3,1,8,0.08
2013-5-20,83,67,56,65,7,-100,96,46,49,30.27,29.94,7,2,13,0.04
2013-5-21,79,61,51,63,2,-100,96,53,55,30.06,29.91,8,2,13,0.05
2013-5-22,68,56,51,59,7,-100,96,59,69,30.09,29.93,7,2,16,0.01
2013-5-23,76,65,55,68,-20,-100,95,38,68,29.97,29.85,11,3,22,0.10
2013-5-24,73,63,50,66,-19,-100,96,45,69,29.86,29.69,6,2,15,0.45
2013-5-25,52,48,42,50,-24,-100,95,48,84,29.85,29.73,10,5,20,0.05
2013-5-26,58,49,40,41,38,35,93,68,44,30.13,29.75,12,6,26,0.01
2013-5-27,73,58,41,45,37,28,92,52,21,30.21,30.10,9,3,16,0.01
2013-5-28,73,60,44,52,44,35,95,60,28,30.27,30.19,5,1,8,0.00
2013-5-29,72,63,59,64,27,-100,97,69,72,30.23,30.03,4,1,9,0.99
2013-5-30,89,76,63,68,12,-100,92,40,44,30.11,30.03,7,2,13,0.01
2013-5-31,95,82,68,68,64,58,89,58,30,30.11,29.95,5,2,14,0.01
2013-6-1,93,81,69,67,63,59,81,57,33,30.01,29.88,9,3,18,0.00
2013-6-2,90,79,70,68,65,60,86,65,38,29.91,29.75,14,6,37,0.00
2013-6-3,78,70,64,67,63,43,95,79,47,29.88,29.78,5,2,12,0.32
2013-6-4,73,63,52,47,42,40,65,48,32,30.13,29.86,7,3,15,0.32
2013-6-5,76,64,52,49,44,39,77,50,30,30.23,30.13,5,1,10,0.00
2013-6-6,75,66,56,54,48,38,78,54,32,30.23,30.14,5,1,13,0.00
2013-6-7,61,56,54,57,21,-100,97,71,72,30.16,29.85,6,2,12,2.10
2013-6-8,80,64,54,62,-12,-100,90,37,52,30.03,29.65,7,3,18,0.04
2013-6-9,80,70,57,59,55,50,96,63,36,30.19,30.03,7,2,15,0.04
2013-6-10,71,64,58,59,51,-100,96,75,54,30.25,30.06,4,1,7,0.63
2013-6-11,64,59,56,58,-46,-100,96,30,80,30.07,29.60,5,2,11,0.63
2013-6-12,72,63,57,57,-3,-100,89,41,51,29.85,29.59,11,4,26,0.02
2013-6-13,69,59,53,57,53,49,96,82,51,29.85,29.71,5,1,10,0.60
2013-6-14,76,61,52,58,3,-100,96,46,44,29.79,29.68,7,2,13,0.38
2013-6-15,80,69,56,54,46,37,90,48,22,29.97,29.79,7,3,14,0.38
2013-6-16,76,68,56,63,53,46,82,60,37,29.97,29.75,7,2,19,0.00
2013-6-17,86,71,59,65,55,-100,96,69,30,29.94,29.81,12,2,19,0.41
2013-6-18,76,64,59,63,11,-100,96,58,56,29.99,29.92,5,1,12,0.44
2013-6-19,74,65,56,58,29,-100,96,52,35,30.18,29.95,4,1,10,0.47
2013-6-20,80,66,52,53,49,40,94,59,28,30.30,30.18,4,1,10,0.00
2013-6-21,86,80,71,64,58,50,68,48,30,30.28,30.22,4,2,11,0.00
2013-6-22,85,74,64,62,58,55,76,58,38,30.25,30.14,8,2,14,0.00
2013-6-23,90,78,66,70,63,55,76,62,47,30.19,30.02,8,4,19,0.00
2013-6-24,94,81,71,72,69,65,94,69,41,30.05,29.89,9,2,15,0.11
2013-6-25,93,81,70,69,67,63,94,66,38,29.95,29.75,6,2,12,0.11
2013-6-26,86,76,69,71,68,66,94,77,55,29.88,29.75,4,1,8,0.12
2013-6-27,73,66,62,68,-23,-100,95,41,76,29.91,29.80,4,1,7,0.03
2013-6-28,83,71,61,72,-17,-100,91,38,61,29.80,29.52,10,3,25,0.03
2013-6-29,83,76,72,70,68,62,94,78,54,29.75,29.54,9,4,19,0.03
2013-6-30,86,77,71,71,69,67,95,78,59,29.97,29.75,7,3,16,0.00
2013-7-1,83,76,72,76,29,-100,95,64,71,30.11,29.97,6,2,12,0.09
2013-7-2,84,74,63,73,69,60,92,83,61,30.25,30.11,5,2,11,0.09
2013-7-3,90,76,62,72,68,61,94,76,50,30.23,30.15,7,3,18,0.00
2013-7-4,94,84,74,74,72,70,93,70,46,30.23,30.12,6,2,15,0.00
2013-7-5,94,86,77,75,72,69,84,66,45,30.18,30.06,7,3,14,0.00
2013-7-6,92,84,77,74,70,62,85,64,45,30.10,30.00,6,2,13,0.00
2013-7-7,93,81,71,76,69,61,86,67,48,30.05,29.92,4,1,11,0.01
2013-7-8,85,78,69,74,71,64,92,80,61,30.09,29.93,5,1,10,0.01
2013-7-9,74,69,65,67,37,-100,95,70,75,30.14,30.08,3,1,8,0.00
2013-7-10,86,75,67,74,28,-100,94,62,65,30.11,29.82,7,2,14,0.04
2013-7-11,83,77,73,74,58,-100,95,76,65,29.95,29.80,4,1,8,0.10
2013-7-12,77,72,68,70,60,53,92,68,46,30.23,29.95,7,3,14,0.10
2013-7-13,78,71,66,69,60,-100,96,80,70,30.34,30.23,4,1,7,0.02
2013-7-14,93,80,70,74,8,-100,89,40,39,30.33,30.23,4,1,10,0.02
2013-7-15,93,82,73,73,70,67,93,69,45,30.23,30.12,4,1,8,0.00
2013-7-16,94,83,74,73,67,61,88,60,35,30.19,30.13,4,1,9,0.00
2013-7-17,97,84,72,73,69,62,89,63,35,30.20,30.02,6,1,12,0.00
2013-7-18,93,83,78,74,70,65,82,67,45,30.03,29.97,5,1,11,0.00
2013-7-19,98,87,77,77,73,66,90,65,37,29.98,29.74,9,3,30,0.00
2013-7-20,94,86,78,76,72,62,85,64,42,29.82,29.66,7,2,16,0.00
2013-7-21,83,76,71,68,64,58,92,68,49,30.01,29.82,5,1,8,0.07
2013-7-22,82,74,68,69,31,-100,95,60,56,30.05,29.92,5,1,9,0.07
2013-7-23,81,73,70,75,-55,-100,94,23,81,29.92,29.57,6,1,13,1.22
2013-7-24,87,77,68,72,4,-100,85,37,48,29.98,29.61,5,2,13,1.23
2013-7-25,68,61,59,58,15,-100,95,54,59,30.14,29.99,6,2,14,0.41
2013-7-26,72,65,60,68,-36,-100,94,34,77,30.10,29.96,8,2,14,0.37
2013-7-27,86,73,60,65,49,-100,94,65,41,30.09,30.02,5,2,14,0.37
2013-7-28,81,72,67,70,34,-100,94,67,65,30.05,30.00,4,1,7,0.02
2013-7-29,84,74,68,70,18,-100,95,54,57,30.06,30.00,8,1,10,0.22
2013-7-30,83,73,61,61,8,-100,91,36,34,30.12,30.06,6,1,12,0.23
2013-7-31,83,74,62,64,58,51,89,61,34,30.17,30.07,3,1,9,0.00
2013-8-1,82,72,64,64,61,58,92,70,45,30.08,29.92,8,2,18,0.01
2013-8-2,84,73,64,68,35,-100,96,55,39,29.92,29.82,5,1,19,0.12
2013-8-3,80,72,66,64,62,58,89,70,48,29.89,29.81,5,2,19,0.12
2013-8-4,82,70,61,61,56,51,84,63,37,29.92,29.80,5,1,12,0.01
2013-8-5,77,66,56,53,47,38,86,53,26,30.08,29.92,8,3,14,0.01
2013-8-6,80,67,52,56,50,45,90,57,31,30.18,30.08,4,0,9,0.00
2013-8-14,75,68,62,64,52,48,92,57,41,29.99,29.69,9,4,20,0.00
2013-8-15,78,67,55,54,50,45,86,58,33,30.14,29.99,5,1,13,0.00
2013-8-16,80,69,56,58,53,48,89,61,34,30.22,30.14,5,1,13,0.00
2013-8-17,79,70,59,59,56,53,86,63,41,30.31,30.22,4,1,8,0.00
2013-8-18,80,71,62,62,58,51,91,64,39,30.31,30.11,5,1,9,0.00
2013-8-19,83,72,60,61,59,55,93,65,41,30.12,29.98,5,1,10,0.00
2013-8-20,88,77,66,63,60,53,82,59,33,30.11,30.00,4,1,10,0.00
2013-8-21,90,78,64,65,62,59,89,61,37,30.17,30.05,4,1,9,0.00
2013-8-22,87,77,67,70,66,62,90,72,46,30.06,29.85,8,2,15,0.00
2013-8-23,75,72,70,70,64,54,92,77,56,30.08,29.85,5,2,13,0.00